Weather History for KAVL - April, 2013

Change the Weather History Date:

Wednesday, April 17, 2013

  Actual Average Record
Temperature  
Mean Temperature 66 °F 56 °F  
Max Temperature 76 °F 68 °F 89 °F (1896)
Min Temperature 55 °F 43 °F 26 °F (1904)
Degree Days  
Heating Degree Days 0 10  
Month to date heating degree days 151 199  
Since 1 July heating degree days 3802 3971  
Cooling Degree Days 1 0  
Month to date cooling degree days 4 0  
Year to date cooling degree days 4 1  
Growing Degree Days 15 (Base 50)    
Moisture  
Dew Point 58 °F    
Average Humidity 75    
Maximum Humidity 93    
Minimum Humidity 57    
Precipitation  
Precipitation 0.31 in 0.10 in 1.54 in (1945)
Month to date precipitation 2.53 1.88  
Year to date precipitation 17.99 13.14  
Snow  
Snow 0.00 in 0.00 in 2.00 in (1875)
Month to date snowfall 0.0 0.6  
Since 1 July snowfall 0.5 9.8  
Snow Depth 0.00 in    
Sea Level Pressure  
Sea Level Pressure 30.20 in    
Wind  
Wind Speed 3 mph (North)    
Max Wind Speed 24 mph    
Max Gust Speed 32 mph    
Visibility 9 miles    
Events Rain , Thunderstorm    
T = Trace of Precipitation, MM = Missing Value Source: NWS Daily Summary

Daily Weather History Graph

Daily Weather History Graph

Search for Another Location

Airport or City:

Trip Planner

Search our weather history database for the weather conditions in past years. The results will help you decide how hot, cold, wet, or windy it might be!

Date:

Astronomy

Apr. 17, 2013 Rise Set
Actual Time 6:54 AM EDT 8:04 PM EDT
Civil Twilight 6:28 AM EDT 8:31 PM EDT
Nautical Twilight 5:57 AM EDT 9:02 PM EDT
Astronomical Twilight 5:24 AM EDT 9:35 PM EDT
Moon 12:11 PM EDT (4/17) 1:37 AM EDT (4/17)
Length of Visible Light 14h 02m
Length of Day
13h 10m
Waxing Crescent, 42% of the Moon is Illuminated
Apr 17
Waxing Crescent
Apr 18
First Quarter
Apr 25
Full
May 2
Last Quarter
May 9
New

Hourly Weather History & Observations

Time (EDT) Temp. Dew Point Humidity Pressure Visibility Wind Dir Wind Speed Gust Speed Precip Events Conditions
12:54 AM 62.1 °F 55.9 °F 80% 30.21 in 10.0 mi Calm Calm - N/A   Overcast
1:54 AM 62.1 °F 55.9 °F 80% 30.19 in 10.0 mi Calm Calm - N/A   Overcast
2:54 AM 60.1 °F 55.9 °F 86% 30.19 in 10.0 mi Calm Calm - N/A   Clear
3:54 AM 57.9 °F 55.0 °F 90% 30.20 in 10.0 mi Calm Calm - N/A   Clear
4:54 AM 55.9 °F 54.0 °F 93% 30.20 in 10.0 mi Calm Calm - N/A   Clear
5:54 AM 55.9 °F 54.0 °F 93% 30.20 in 10.0 mi Calm Calm - N/A   Clear
6:54 AM 57.0 °F 55.0 °F 93% 30.22 in 10.0 mi Calm Calm - N/A   Mostly Cloudy
7:54 AM 57.9 °F 55.0 °F 90% 30.26 in 10.0 mi North 5.8 mph - N/A   Overcast
8:54 AM 61.0 °F 55.9 °F 83% 30.24 in 10.0 mi Calm Calm - N/A   Scattered Clouds
9:54 AM 66.2 °F 57.2 °F 73% 30.28 in 10.0 mi Calm Calm - N/A   Clear
10:54 AM 68.0 °F 57.9 °F 70% 30.21 in 10.0 mi Calm Calm - N/A   Overcast
11:54 AM 73.0 °F 57.9 °F 59% 30.20 in 10.0 mi NNE 5.8 mph - 0.01 in   Scattered Clouds
12:54 PM 75.0 °F 59.0 °F 57% 30.17 in 10.0 mi ENE 4.6 mph - N/A   Scattered Clouds
1:54 PM 73.0 °F 57.9 °F 59% 30.17 in 10.0 mi North 16.1 mph 21.9 mph N/A   Overcast
2:13 PM 66.2 °F 55.4 °F 68% 30.25 in 10.0 mi NW 24.2 mph 29.9 mph 0.00 in Rain Light Rain
2:31 PM 64.4 °F 57.2 °F 77% 30.26 in 10.0 mi NW 18.4 mph 29.9 mph 0.00 in Rain , Thunderstorm Light Thunderstorms and Rain
2:48 PM 62.6 °F 59.0 °F 88% 30.28 in 1.8 mi NNW 16.1 mph - 0.03 in Rain , Thunderstorm Light Thunderstorms and Rain
2:54 PM 62.1 °F 59.0 °F 90% 30.23 in 1.0 mi NNW 12.7 mph - 0.20 in Rain Heavy Rain
3:02 PM 62.6 °F 59.0 °F 88% 30.27 in 2.0 mi North 10.4 mph - 0.04 in Rain Heavy Rain
3:33 PM 62.6 °F 60.8 °F 94% 30.24 in 5.0 mi Variable 4.6 mph - 0.10 in Rain Light Rain
3:54 PM 64.0 °F 61.0 °F 90% 30.21 in 10.0 mi WSW 3.5 mph - 0.10 in   Scattered Clouds
4:54 PM 64.9 °F 61.0 °F 87% 30.18 in 10.0 mi South 5.8 mph - N/A   Clear
5:54 PM 64.9 °F 61.0 °F 87% 30.17 in 10.0 mi South 4.6 mph - N/A   Clear
6:54 PM 64.0 °F 59.0 °F 84% 30.14 in 10.0 mi SE 5.8 mph - N/A   Clear
7:54 PM 63.0 °F 59.0 °F 87% 30.14 in 10.0 mi SE 8.1 mph - N/A   Clear
8:54 PM 63.0 °F 57.9 °F 84% 30.15 in 10.0 mi SE 4.6 mph - N/A   Clear
9:54 PM 63.0 °F 57.0 °F 81% 30.14 in 10.0 mi Calm Calm - N/A   Clear
10:54 PM 60.1 °F 57.0 °F 90% 30.13 in 10.0 mi Calm Calm - N/A   Clear
11:54 PM 60.1 °F 57.0 °F 90% 30.12 in 10.0 mi Calm Calm - N/A   Clear